TimeEDT,TemperatureF,Dew PointF,Humidity,Sea Level PressureIn,VisibilityMPH,Wind Direction,Wind SpeedMPH,Gust SpeedMPH,PrecipitationIn,Events,Conditions,WindDirDegrees,DateUTC
12:52 AM,72.0,64.9,78,29.94,10.0,Variable,4.6,-,N/A,,Clear,0,2013-06-25 04:52:00
1:52 AM,71.1,66.0,84,29.94,10.0,NNE,3.5,-,N/A,,Mostly Cloudy,30,2013-06-25 05:52:00
2:52 AM,71.1,64.9,81,29.93,10.0,Calm,Calm,-,N/A,,Clear,0,2013-06-25 06:52:00
3:52 AM,70.0,64.0,81,29.91,10.0,NW,3.5,-,N/A,,Partly Cloudy,310,2013-06-25 07:52:00
4:52 AM,70.0,64.0,81,29.92,10.0,Calm,Calm,-,N/A,,Clear,0,2013-06-25 08:52:00
5:52 AM,71.1,64.0,78,29.93,10.0,NNE,3.5,-,N/A,,Clear,20,2013-06-25 09:52:00
6:52 AM,75.0,64.0,69,29.92,10.0,Calm,Calm,-,N/A,,Clear,0,2013-06-25 10:52:00
7:44 AM,75.2,62.6,65,29.92,10.0,WNW,5.8,-,N/A,,Partly Cloudy,290,2013-06-25 11:44:00
7:52 AM,75.9,63.0,64,29.92,10.0,West,8.1,-,N/A,,Clear,280,2013-06-25 11:52:00
8:29 AM,78.8,64.4,61,29.92,10.0,West,5.8,-,N/A,,Partly Cloudy,270,2013-06-25 12:29:00
8:52 AM,80.1,64.0,58,29.91,10.0,West,8.1,-,N/A,,Partly Cloudy,280,2013-06-25 12:52:00
9:52 AM,82.0,64.0,54,29.90,10.0,West,6.9,-,N/A,,Clear,270,2013-06-25 13:52:00
10:52 AM,84.9,66.9,55,29.91,10.0,West,8.1,16.1,N/A,,Clear,270,2013-06-25 14:52:00
11:20 AM,86.0,68.0,55,29.91,10.0,WNW,8.1,-,N/A,,Partly Cloudy,300,2013-06-25 15:20:00
11:52 AM,87.1,68.0,53,29.89,-9999.0,North,-9999.0,-,N/A,,Unknown,0,2013-06-25 15:52:00
12:52 PM,90.0,66.9,46,29.88,10.0,WNW,9.2,-,N/A,,Clear,300,2013-06-25 16:52:00
1:52 PM,90.0,66.0,45,29.85,10.0,WSW,6.9,16.1,N/A,,Partly Cloudy,250,2013-06-25 17:52:00
2:52 PM,90.0,66.0,45,29.83,10.0,West,12.7,17.3,N/A,,Clear,260,2013-06-25 18:52:00
3:52 PM,90.0,66.0,45,29.79,10.0,SW,12.7,-,N/A,,Clear,220,2013-06-25 19:52:00
4:32 PM,89.6,66.2,46,29.78,10.0,SSW,9.2,-,N/A,,Partly Cloudy,200,2013-06-25 20:32:00
4:52 PM,89.1,66.9,48,29.78,10.0,SSW,8.1,-,N/A,,Partly Cloudy,200,2013-06-25 20:52:00
5:52 PM,88.0,66.9,49,29.75,10.0,SSW,9.2,-,N/A,,Clear,210,2013-06-25 21:52:00
6:07 PM,87.8,66.2,49,29.75,10.0,SSW,9.2,-,N/A,,Partly Cloudy,210,2013-06-25 22:07:00
6:52 PM,86.0,66.9,53,29.75,10.0,SSW,4.6,-,N/A,,Clear,200,2013-06-25 22:52:00
7:52 PM,84.0,66.9,56,29.73,10.0,SSW,4.6,-,0.00,,Clear,210,2013-06-25 23:52:00
8:52 PM,75.9,69.1,79,29.75,10.0,NW,9.2,-,0.00,,Scattered Clouds,320,2013-06-26 00:52:00
9:52 PM,75.0,69.1,82,29.77,10.0,NW,4.6,-,N/A,,Mostly Cloudy,310,2013-06-26 01:52:00
10:52 PM,75.0,68.0,79,29.78,10.0,WNW,6.9,-,N/A,,Partly Cloudy,290,2013-06-26 02:52:00
11:52 PM,73.9,68.0,82,29.77,10.0,NW,4.6,-,N/A,,Clear,320,2013-06-26 03:52:00